Location: Izdebno
(52.6670°N, 16.2170°E)
Time: 23:08:42
(UTC+02:00)

Vanguard 2 Rocket - Pass Details

Date: 28 February 2024
Orbit: 555 x 3307 km, 32.9° (Epoch: 21 April)

Event Time Altitude Azimuth Distance (km) Brightness Sun altitude
Rises 15:57:12 0° 245° (WSW) 4,570 12.5 12.3°
Reaches altitude 10° 16:00:17 10° 235° (SW) 3,939 13.3 11.9°
Maximum altitude 16:09:25 30° 179° (S) 3,485 10.3 10.7°
Drops below altitude 10° 16:22:52 10° 128° (SE) 5,851 10.8 8.9°
Sets 16:28:47 0° 119° (ESE) 7,128 11.1 8.1°
